Location: Ponte Samoggia
(44.5667°N, 11.1333°E)
Time: 21:23:54
(UTC+00:00)

Cosmos 2366 rocket - Pass Details

Date: 26 May 2022
Orbit: 955 x 997 km, 82.9° (Epoch: 29 June)

Event Time Altitude Azimuth Distance (km) Brightness Sun altitude
Rises 02:38:09 0° 350° (N) 3,645 7.5 -9.3°
Reaches altitude 10° 02:40:39 10° 350° (N) 2,697 6.8 -9.0°
Maximum altitude 02:46:49 80° 264° (W) 979 4.0 -8.2°
Drops below altitude 10° 02:52:59 10° 179° (S) 2,698 6.0 -7.3°
Sets 02:55:29 0° 178° (S) 3,646 6.6 -7.0°
